W7YP Weather Reports


time (UTC)temp
F
wind
direction
speed
knots
gust
knots
rain 1hr
in
rain 24hr
in
rain mn
in
humidity
%
barometer
mb
20260504000958 73 207 0.0 4.3 0.00 0.00 0.00 32 1010.9
20260504000223 73 206 0.9 4.3 0.00 0.00 0.00 31 1011.1
20260503235723 73 199 0.0 4.3 0.00 0.00 0.00 33 1011.1
20260503235445 73 269 0.9 3.5 0.00 0.00 0.00 32 1011.2
20260503234718 73 190 0.0 3.5 0.00 0.00 0.00 33 1011.1
20260503234218 72 288 0.0 5.2 0.00 0.00 0.00 32 1011.2
20260503233716 72 340 0.9 5.2 0.00 0.00 0.00 32 1011.2
20260503233431 72 198 0.0 5.2 0.00 0.00 0.00 32 1011.4
20260503232704 72 236 1.7 5.2 0.00 0.00 0.00 32 1011.5
20260503232149 72 21 0.9 5.2 0.00 0.00 0.00 33 1011.6
20260503231649 72 334 0.0 4.3 0.00 0.00 0.00 34 1011.7
20260503231151 72 348 0.0 6.1 0.00 0.00 0.00 33 1011.7
20260503230911 72 157 0.9 6.1 0.00 0.00 0.00 34 1011.6
20260503230149 72 300 0.9 8.7 0.00 0.00 0.00 34 1011.7
20260503225644 71 137 2.6 8.7 0.00 0.00 0.00 34 1011.7
20260503225140 72 189 2.6 7.8 0.00 0.00 0.00 34 1011.8
20260503224640 72 183 0.0 7.8 0.00 0.00 0.00 34 1011.8
20260503224140 72 355 1.7 6.1 0.00 0.00 0.00 34 1011.8
20260503223640 72 295 1.7 6.1 0.00 0.00 0.00 35 1011.8
20260503223140 72 340 0.9 7.0 0.00 0.00 0.00 34 1011.9
20260503222631 72 275 1.7 7.0 0.00 0.00 0.00 34 1011.9
20260503222126 72 346 0.9 9.6 0.00 0.00 0.00 34 1012.0
20260503221843 72 153 0.0 9.6 0.00 0.00 0.00 34 1012.1
20260503221116 72 110 0.0 7.8 0.00 0.00 0.00 34 1012.2
20260503220616 72 203 0.9 7.8 0.00 0.00 0.00 35 1012.5
20260503220116 72 178 0.9 7.8 0.00 0.00 0.00 35 1012.6
20260503215616 72 126 0.0 5.2 0.00 0.00 0.00 34 1012.6
20260503215604 72 306 0.0 4.3 0.00 0.00 0.00 34 1012.7
20260503214602 72 313 0.0 7.0 0.00 0.00 0.00 34 1012.8
20260503214056 72 300 1.7 7.0 0.00 0.00 0.00 34 1012.9
20260503213556 72 329 0.0 5.2 0.00 0.00 0.00 34 1013.0
20260503213100 72 227 0.9 7.0 0.00 0.00 0.00 35 1013.0
20260503212538 72 322 0.0 4.3 0.00 0.00 0.00 34 1013.1
20260503212037 71 178 0.0 10.4 0.00 0.00 0.00 34 1013.3
20260503211537 71 219 1.7 10.4 0.00 0.00 0.00 33 1013.3
20260503211037 71 141 0.0 7.8 0.00 0.00 0.00 35 1013.4
20260503211019 71 61 1.7 7.0 0.00 0.00 0.00 34 1013.4
20260503210032 71 146 3.5 7.0 0.00 0.00 0.00 35 1013.4
20260503205754 71 189 1.7 8.7 0.00 0.00 0.00 34 1013.5
20260503205304 71 180 2.6 8.7 0.00 0.00 0.00 34 1013.5
20260503204533 71 149 1.7 5.2 0.00 0.00 0.00 34 1013.6
20260503204031 71 26 1.7 7.0 0.00 0.00 0.00 35 1013.7
20260503203753 71 237 2.6 7.0 0.00 0.00 0.00 34 1013.7
20260503203025 71 318 0.0 4.3 0.00 0.00 0.00 37 1013.7
20260503202523 71 40 0.0 10.4 0.00 0.00 0.00 33 1013.8
20260503202019 71 325 1.7 11.3 0.00 0.00 0.00 35 1013.8
20260503201519 71 21 2.6 11.3 0.00 0.00 0.00 34 1013.8
20260503201510 71 342 0.9 11.3 0.00 0.00 0.00 34 1013.9
20260503200519 71 192 1.7 11.3 0.00 0.00 0.00 33 1013.9
20260503200022 71 316 0.9 5.2 0.00 0.00 0.00 35 1014.0
20260503195518 70 336 0.0 8.7 0.00 0.00 0.00 33 1014.1
20260503195015 70 155 2.6 8.7 0.00 0.00 0.00 33 1014.3
20260503194510 70 172 0.9 5.2 0.00 0.00 0.00 35 1014.4
20260503194009 69 331 0.0 7.8 0.00 0.00 0.00 34 1014.6
20260503193737 69 349 1.7 7.8 0.00 0.00 0.00 34 1014.6
20260503193010 69 285 0.9 7.0 0.00 0.00 0.00 34 1014.6
20260503192510 69 333 0.9 7.8 0.00 0.00 0.00 34 1014.7
20260503192006 69 213 1.7 7.8 0.00 0.00 0.00 34 1014.8
20260503191502 69 0 0.9 5.2 0.00 0.00 0.00 37 1014.7
20260503191001 69 180 0.9 6.1 0.00 0.00 0.00 35 1014.9
20260503190501 69 300 1.7 6.1 0.00 0.00 0.00 35 1014.9
20260503190001 69 86 0.9 6.1 0.00 0.00 0.00 36 1014.9
20260503185500 68 286 0.9 5.2 0.00 0.00 0.00 35 1015.0
20260503185004 68 198 0.0 7.8 0.00 0.00 0.00 36 1015.1
20260503184503 67 170 2.6 7.8 0.00 0.00 0.00 35 1015.3
20260503183957 67 152 0.9 8.7 0.00 0.00 0.00 36 1015.1
20260503183715 67 327 0.9 8.7 0.00 0.00 0.00 35 1015.1
20260503182952 67 5 3.5 8.7 0.00 0.00 0.00 33 1015.4
20260503182454 66 86 0.9 7.0 0.00 0.00 0.00 35 1015.4
20260503181952 66 101 0.9 4.3 0.00 0.00 0.00 37 1015.5
20260503181452 65 200 0.9 7.0 0.00 0.00 0.00 37 1015.6
20260503180947 65 144 0.0 7.0 0.00 0.00 0.00 38 1015.6
20260503180447 64 165 0.9 2.6 0.00 0.00 0.00 39 1015.7
20260503175948 64 321 0.0 4.3 0.00 0.00 0.00 43 1015.7
20260503175448 63 317 0.9 4.3 0.00 0.00 0.00 47 1015.8
20260503174949 62 130 0.0 3.5 0.00 0.00 0.00 43 1015.9
20260503174711 62 119 0.9 3.5 0.00 0.00 0.00 49 1015.8
20260503173946 62 97 0.0 3.5 0.00 0.00 0.00 51 1015.9
20260503173447 61 98 0.9 3.5 0.00 0.00 0.00 52 1015.8
20260503172944 61 94 0.9 3.5 0.00 0.00 0.00 52 1015.9
20260503172444 61 67 0.0 2.6 0.00 0.00 0.00 52 1016.0
20260503171944 60 65 0.9 3.5 0.00 0.00 0.00 53 1016.2
20260503171444 60 102 0.9 3.5 0.00 0.00 0.00 53 1016.2
20260503171206 60 125 0.0 3.5 0.00 0.00 0.00 56 1016.2
20260503170709 59 76 0.0 6.1 0.00 0.00 0.00 56 1016.2
20260503160145 54 83 0.9 2.6 0.00 0.00 0.00 62 1016.7
20260503150904 50 121 0.0 1.7 0.00 0.00 0.00 69 1017.6
20260503150628 50 121 0.0 0.9 0.00 0.00 0.00 69 1017.7
20260503150126 49 121 0.0 2.6 0.00 0.00 0.00 69 1017.8
20260503131322 38 298 0.0 0.0 0.00 0.00 0.00 94 1017.8
20260503130822 38 298 0.0 0.0 0.00 0.00 0.00 94 1017.7
20260503130325 37 298 0.0 1.7 0.00 0.00 0.00 94 1017.6
20260503110703 39 298 0.0 0.0 0.00 0.00 0.00 91 1017.5
20260503110201 39 298 0.0 0.0 0.00 0.00 0.00 91 1017.5
20260503100112 40 298 0.0 0.0 0.00 0.00 0.00 90 1017.4
20260503081530 43 298 0.0 0.0 0.00 0.00 0.00 87 1017.4
20260503081249 43 298 0.0 0.0 0.00 0.00 0.00 86 1017.4
20260503080531 43 298 0.0 0.0 0.00 0.00 0.00 86 1017.3
20260503072726 44 298 0.0 0.0 0.00 0.00 0.00 84 1017.3
20260503071958 44 298 0.0 0.0 0.00 0.00 0.00 83 1017.3
20260503071448 44 298 0.0 0.0 0.00 0.00 0.00 83 1017.3
20260503070948 45 298 0.0 0.0 0.00 0.00 0.00 83 1017.3
20260503070442 45 298 0.0 0.0 0.00 0.00 0.00 83 1017.4
20260503060343 47 298 0.0 0.9 0.00 0.00 0.00 79 1016.8
20260503054824 47 298 0.0 0.9 0.00 0.00 0.00 79 1016.7
20260503054820 47 298 0.0 0.9 0.00 0.00 0.00 79 1016.7
20260503054037 48 298 0.0 0.0 0.00 0.00 0.00 78 1016.8
20260503053304 48 298 0.0 0.0 0.00 0.00 0.00 77 1016.8
20260503052807 48 298 0.0 0.0 0.00 0.00 0.00 77 1016.8
20260503052305 49 298 0.0 0.0 0.00 0.00 0.00 77 1016.7
20260503051805 49 298 0.0 0.0 0.00 0.00 0.00 77 1016.7
20260503051525 49 298 0.0 0.0 0.00 0.00 0.00 78 1016.7
20260503050800 49 298 0.0 0.0 0.00 0.00 0.00 78 1016.7
20260503050255 49 298 0.0 0.0 0.00 0.00 0.00 77 1016.8
20260503045755 49 298 0.0 0.0 0.00 0.00 0.00 76 1016.8
20260503045300 49 298 0.0 0.0 0.00 0.00 0.00 76 1016.8
20260503044756 49 298 0.0 0.0 0.00 0.00 0.00 76 1016.8
20260503044251 50 298 0.0 0.0 0.00 0.00 0.00 76 1016.8
20260503043745 50 298 0.0 0.0 0.00 0.00 0.00 77 1016.8
20260503043502 50 298 0.0 1.7 0.00 0.00 0.00 77 1016.8
20260503042729 50 298 0.0 1.7 0.00 0.00 0.00 76 1016.8
20260503042225 50 298 0.0 0.0 0.00 0.00 0.00 76 1016.8
20260503041945 50 298 0.0 0.0 0.00 0.00 0.00 76 1016.7
20260503041221 50 298 0.0 0.0 0.00 0.00 0.00 74 1016.7
20260503040722 51 298 0.0 0.0 0.00 0.00 0.00 73 1016.7
20260503040217 51 298 0.0 0.0 0.00 0.00 0.00 74 1016.6
20260503035701 51 298 0.0 0.0 0.00 0.00 0.00 72 1016.6
20260503035157 51 298 0.0 0.0 0.00 0.00 0.00 72 1016.6
20260503034651 52 298 0.0 0.0 0.00 0.00 0.00 72 1016.5
20260503034132 52 298 0.0 0.0 0.00 0.00 0.00 70 1016.5
20260503033632 52 298 0.0 0.0 0.00 0.00 0.00 71 1016.5
20260503033609 53 298 0.0 0.0 0.00 0.00 0.00 69 1016.5
20260503032632 53 298 0.0 0.0 0.00 0.00 0.00 70 1016.5
20260503032132 53 298 0.0 0.9 0.00 0.00 0.00 70 1016.4
20260503031628 54 298 0.0 0.9 0.00 0.00 0.00 69 1016.4
20260503031117 55 287 0.0 0.0 0.00 0.00 0.00 69 1016.4
20260503030607 55 287 0.0 0.9 0.00 0.00 0.00 67 1016.3
20260503030108 56 287 0.0 0.9 0.00 0.00 0.00 67 1016.3
20260503025608 56 288 0.0 0.0 0.00 0.00 0.00 66 1016.3
20260503025111 57 288 0.0 0.0 0.00 0.00 0.00 65 1016.2
20260503024608 58 288 0.0 1.7 0.00 0.00 0.00 62 1016.2
20260503024104 58 288 0.0 1.7 0.00 0.00 0.00 64 1016.2
20260503023558 59 288 0.0 0.0 0.00 0.00 0.00 63 1016.0
20260503023054 60 288 0.0 0.0 0.00 0.00 0.00 61 1016.0
20260503022554 60 288 0.0 0.9 0.00 0.00 0.00 61 1016.0
20260503022328 61 288 0.0 0.9 0.00 0.00 0.00 59 1015.9
20260503021814 61 288 0.0 0.9 0.00 0.00 0.00 57 1015.9
20260503021315 62 288 0.0 0.9 0.00 0.00 0.00 58 1016.0
20260503020549 63 288 0.0 0.0 0.00 0.00 0.00 57 1015.9
20260503020045 63 288 0.0 0.0 0.00 0.00 0.00 56 1015.9
20260503015545 64 288 0.0 0.0 0.00 0.00 0.00 56 1015.9
20260503015045 65 288 0.0 1.7 0.00 0.00 0.00 56 1015.9
20260503014540 65 288 0.0 1.7 0.00 0.00 0.00 53 1016.0
20260503014041 65 288 0.0 0.9 0.00 0.00 0.00 53 1015.9
20260503013535 65 288 0.0 0.0 0.00 0.00 0.00 50 1016.0
20260503013033 66 288 0.0 3.5 0.00 0.00 0.00 49 1016.0
20260503012525 66 288 0.0 3.5 0.00 0.00 0.00 51 1016.0
20260503012240 66 100 0.0 1.7 0.00 0.00 0.00 49 1016.0
20260503011521 66 145 0.0 1.7 0.00 0.00 0.00 47 1015.9
20260503011021 66 145 0.0 1.7 0.00 0.00 0.00 45 1015.9
20260503010523 66 179 0.0 0.9 0.00 0.00 0.00 44 1016.0
20260503010022 66 297 0.0 3.5 0.00 0.00 0.00 44 1016.0
20260503005512 66 297 0.0 3.5 0.00 0.00 0.00 41 1016.2
20260503005001 67 313 0.0 3.5 0.00 0.00 0.00 41 1016.2
20260503004457 67 158 0.9 4.3 0.00 0.00 0.00 40 1016.2
20260503003957 67 0 0.9 4.3 0.00 0.00 0.00 38 1016.3
20260503003457 68 180 0.0 4.3 0.00 0.00 0.00 38 1016.3
20260503002957 68 180 0.9 4.3 0.00 0.00 0.00 38 1016.3
20260503002718 68 190 0.0 2.6 0.00 0.00 0.00 37 1016.3
20260503002210 68 190 0.0 3.5 0.00 0.00 0.00 37 1016.3
20260503001447 68 190 0.9 3.5 0.00 0.00 0.00 36 1016.4